Tracking 30923 objects as of 1-Jul-2025
HD Live streaming from Space Station
objects crossing your sky now

STARLINK-31404

Track STARLINK-31404 now!
10-day predictions


NORAD ID: 59521
Int'l Code: 2024-073L
Perigee: 489.5 km
Apogee: 490.9 km
Inclination: 43.0 °
Period: 94.3 minutes
Semi major axis: 6861 km
RCS: Unknown
Launch date: April 17, 2024
Source: United States (US)
Launch site: AIR FORCE EASTERN TEST RANGE (AFETR)
Your satellite tracking list
Your tracking list is empty




NASA's NSSDC Master Catalog

Two Line Element Set (TLE):
1 59521U 24073L   25181.70272434  .00000717  00000-0  35571-4 0  9994
2 59521  43.0005 301.4365 0001044 262.3185  97.7548 15.27575794 67638
Source of the keplerian elements: AFSPC